sat.trackr.live / text

‹ back to catalog

ONEWEB-0311

NORAD 49097 · 2021-075Y

PAYLOAD ACTIVE UNKNOWN

§ Identity

Operator
Country
UK
Launch date
2021-08-21
Launch site
TYMSC
Launch vehicle
Mass (kg)
RCS (m²)

Purposes: comms

External: N2YO · Heavens-Above · Gunter

§ Orbital elements

Epoch: 2026-09-09T18:21:02.462976Z

Period
109.29 min
Inclination
87.9204°
Eccentricity
0.0001932
Mean motion
13.17648754 rev/d
Perigee alt
1,192.3 km
Apogee alt
1,195.2 km
Semi-major
7,571.9 km
B*
-2.0715e-5
RAAN
349.0642°
Arg perigee
115.3604°
Mean anomaly
244.7728°
Rev number
24,476

§ Raw data

ONEWEB-03111 49097U 21075Y   26252.76461184  .00000005  00000+0 -20715-4 0  99922 49097  87.9204 349.0642 0001932 115.3604 244.7728 13.17648754244767

JSON: /api/v1/satellites/49097 · /tle

For live sub-satellite position, see the globe view (requires WebGL).

§ Visibility from observer

Set your observer location to see the next 7 days of passes ≥ 10°. The values pass through the URL so the page stays shareable.

No JS? Fill the form by hand. The geolocation button needs JavaScript.